Flag for Netherlands Weather past 2 weeks in Haarlem, Netherlands

Now
37 °F

Scattered showers. Passing clouds.


Feels Like: 32 °F
Forecast: 37 / 42 °F
Wind: 7 mph from Northwest

Location: Amsterdam Schiphol Airport

Current Time: Feb 1, 2015 at 7:18:49 PM

Latest Report: Feb 1, 2015 at 6:55 PM


Visibility: 6 mi

Pressure: 29.39 "Hg

Humidity: 81%

Dew point: 32 °F

Location of HaarlemLocation

Historic Weather in Haarlem — Graph

°F

Haarlem temperature yesterday

Maximum temperature yesterday: 39 °F (at 1:25 PM)
Minimum temperature yesterday: 30 °F (at 11:55 PM)
Average temperature yesterday: 35 °F

Past Weeks' High & Low Weather Summary

 TemperatureHumidityPressure
High46 °F (Jan 26, 8:25 AM)100% (Jan 18, 6:25 AM)30.39 "Hg (Jan 18, 6:25 AM)
Low21 °F (Jan 23, 4:25 AM)65% (Jan 28, 11:55 PM)28.68 "Hg (Jan 29, 10:25 PM)
Average36 °F89%29.76 "Hg
* Reported Jan 17 5:25 PM — Feb 1 5:55 PM, Haarlem, Weather by CustomWeather, © 2014

Note: Actual official high and low records may vary slightly from our data, if they occured in-between our weather recording intervals... More about our weather records

Advertising

Haarlem weather history for previous 24 hours

 ConditionsComfort  
Time TempWeatherWind HumidityBarometerVisibility
5:55 PM
Feb 1
39 °FPassing clouds.10 mph87%29.36 "HgN/A
5:25 PM39 °FPassing clouds.10 mph87%29.33 "HgN/A
4:55 PM41 °FPassing clouds.9 mph81%29.33 "HgN/A
4:25 PM41 °FScattered showers. Passing clouds.9 mph81%29.33 "HgN/A
3:55 PM43 °FPassing clouds.12 mph76%29.30 "HgN/A
3:25 PM41 °FScattered clouds.10 mph87%29.30 "HgN/A
2:55 PM43 °FScattered clouds.12 mph81%29.27 "HgN/A
2:25 PM43 °FScattered clouds.9 mph81%29.24 "HgN/A
1:55 PM41 °FScattered showers. Scattered clouds.12 mph87%29.24 "HgN/A
1:25 PM41 °FSprinkles. Broken clouds.3 mph87%29.21 "HgN/A
12:55 PM41 °FSprinkles. Partly sunny.1 mph87%29.21 "HgN/A
12:25 PM41 °FBroken clouds.2 mph87%29.21 "HgN/A
11:55 AM41 °FScattered showers. Scattered clouds.2 mph87%29.18 "HgN/A
11:25 AM39 °FScattered clouds.6 mph93%29.18 "HgN/A
10:55 AM39 °FScattered showers. Scattered clouds.6 mph93%29.15 "HgN/A
10:25 AM39 °FPartly sunny.5 mph93%29.12 "HgN/A
9:55 AM39 °FPartly sunny.5 mph93%29.12 "HgN/A
9:25 AM37 °FScattered showers. Scattered clouds.7 mph100%29.12 "HgN/A
8:55 AM39 °FSnow flurries. Scattered clouds.9 mph87%29.12 "HgN/A
8:25 AM39 °FBroken clouds.9 mph87%29.09 "HgN/A
7:55 AM39 °FPartly cloudy.14 mph87%29.09 "HgN/A
7:25 AM39 °FPassing clouds.13 mph87%29.09 "HgN/A
6:55 AM37 °FPassing clouds.16 mph93%29.09 "Hg5 mi
6:25 AM37 °FScattered showers. Partly cloudy.8 mph93%29.09 "HgN/A
5:55 AM36 °FScattered showers. Partly cloudy.9 mph93%29.09 "HgN/A
5:25 AM34 °FSprinkles. Passing clouds.5 mph100%29.09 "Hg4 mi
4:55 AM34 °FPartly cloudy.5 mph100%29.09 "HgN/A
4:25 AM34 °FSprinkles. Passing clouds.6 mph93%29.09 "Hg6 mi
3:55 AM32 °FSprinkles. Passing clouds.6 mph93%29.09 "Hg4 mi
3:25 AM32 °FPassing clouds.8 mph93%29.09 "Hg6 mi
2:55 AM32 °FPassing clouds.9 mph93%29.09 "HgN/A
2:25 AM30 °FPassing clouds.6 mph100%29.09 "HgN/A
1:55 AM32 °FPassing clouds.7 mph93%29.09 "HgN/A
1:25 AM32 °FPassing clouds.9 mph93%29.09 "HgN/A
12:55 AM32 °FPassing clouds.9 mph93%29.09 "HgN/A
12:25 AM32 °FPassing clouds.9 mph93%29.09 "HgN/A
11:55 PM
Jan 31
30 °FPassing clouds.8 mph93%29.09 "HgN/A
11:25 PM32 °FPassing clouds.9 mph93%29.06 "HgN/A
10:55 PM32 °FPassing clouds.8 mph100%29.09 "HgN/A
10:25 PM32 °FPassing clouds.8 mph100%29.09 "HgN/A
9:55 PM34 °FPassing clouds.3 mph100%29.06 "HgN/A
9:25 PM34 °FLight rain. Passing clouds.8 mph100%29.06 "Hg6 mi
8:55 PM34 °FPassing clouds.9 mph100%29.06 "HgN/A
8:25 PM32 °FPassing clouds.8 mph93%29.06 "HgN/A
7:55 PM32 °FPassing clouds.8 mph100%29.06 "HgN/A
7:25 PM32 °FPassing clouds.9 mph100%29.06 "HgN/A
Weather by CustomWeather, © 2014

See weather overviewHow to use our weather pages